Location: Cointrin
(46.2167°N, 6.1167°E)
Time: 15:45:43
(UTC+00:00)

Lacrosse 4 Rocket - Pass Details

Date: 08 February 2023
Orbit: 536 x 608 km, 68.0° (Epoch: 22 March)

Event Time Altitude Azimuth Distance (km) Brightness Sun altitude
Rises 19:26:39 0° 334° (NNW) 2,837 5.4 -27.4°
Reaches altitude 10° 19:29:04 10° 342° (NNW) 1,919 4.3 -27.8°
Enters shadow 19:30:06 16° 349° (N) 1,552 3.8 -28.0°
